Wind_Speed
24 24 25 26 26 25 25 25 25 25 24 24 24 24 24 24 25 26 25 26 25 24 25 25 26 27 27 28 28 27 27 27 27 27 27 28 29 29
24 24 25 25 25 25 25 25 25 25 24 25 25 25 24 23 24 25 25 25 25 25 25 25 25 26 27 27 27 27 27 27 26 26 26 27 27 28
24 24 25 25 25 25 25 25 25 25 24 24 25 24 24 24 23 24 25 25 26 26 25 25 25 25 26 26 26 26 26 26 26 25 25 26 26 27
24 24 25 25 25 25 25 25 24 24 24 24 25 24 23 24 24 23 24 25 26 26 26 25 25 25 25 25 25 26 26 25 25 25 25 26 26 26
23 24 24 24 25 25 24 24 24 24 24 23 24 24 23 23 24 24 24 24 25 26 26 26 26 25 25 25 25 25 25 25 25 26 26 25 25 25
23 24 24 24 24 24 24 24 23 23 23 23 24 24 23 22 22 23 24 25 25 26 27 27 27 27 26 26 26 26 26 26 26 26 26 26 25 25
23 22 23 23 23 23 24 24 24 24 24 24 24 23 23 22 22 22 22 22 23 25 26 27 27 28 28 28 28 28 27 27 27 27 27 27 27 27
22 22 22 22 22 23 23 23 23 23 23 23 24 23 23 22 22 21 21 20 20 23 25 25 26 27 29 29 30 30 30 30 30 30 30 30 29 29
22 22 22 22 22 21 22 22 22 22 22 22 22 22 22 22 22 21 21 20 20 20 21 22 25 27 28 28 29 31 32 33 33 33 33 33 32 32
22 21 21 21 21 21 20 21 21 21 21 21 21 21 21 20 20 20 20 20 19 19 21 21 22 24 26 28 30 31 32 34 36 36 36 36 37 36
20 20 20 20 20 20 19 18 18 18 19 19 19 19 19 19 19 19 19 18 19 20 21 21 22 23 25 26 27 29 31 33 34 36 37 38 39 39
17 17 17 18 18 17 16 16 16 16 16 16 17 17 17 17 18 18 18 18 18 18 19 20 20 21 22 23 25 26 28 30 32 33 34 36 38 39
14 14 14 14 14 14 14 14 14 14 14 14 14 15 15 16 16 16 17 17 18 18 19 20 20 21 21 23 24 25 26 28 29 31 33 34 36 37
11 11 12 11 12 12 12 12 12 12 12 12 13 13 13 13 14 14 15 16 17 18 19 20 21 22 23 24 25 27 27 28 29 31 32 34 35 36
7 8 9 9 9 10 10 11 11 11 11 11 11 11 11 12 13 14 14 15 17 18 19 20 21 22 24 25 26 28 30 31 32 33 34 35 36 37
3 4 5 5 6 7 7 8 9 9 9 9 9 10 10 11 12 13 14 15 16 18 19 20 21 23 24 26 28 29 31 32 33 35 36 36 37 38
2 1 1 1 2 2 3 4 5 5 6 7 7 8 9 9 11 12 13 14 15 17 19 20 21 23 25 27 29 30 32 33 35 36 37 38 39 40
7 6 5 4 2 1 1 1 1 2 3 4 5 6 7 8 9 11 12 13 15 16 17 19 21 23 24 26 28 30 31 32 34 35 36 37 39 40
12 11 10 8 7 7 6 5 4 4 4 4 4 4 6 7 9 10 12 13 14 16 17 18 20 21 23 25 27 29 30 31 32 33 33 34 35 37
15 15 14 13 11 10 9 8 8 7 7 6 6 7 7 8 9 11 12 14 15 16 18 19 20 22 23 25 26 27 28 29 30 30 31 32 33 33
17 16 15 15 14 14 13 12 11 10 10 10 10 10 10 10 11 12 14 15 16 18 19 20 21 22 24 25 26 26 26 27 27 28 28 29 30 31
18 17 16 16 15 14 14 13 13 13 12 12 12 11 11 12 12 13 15 16 18 19 21 22 23 24 25 25 26 26 25 25 25 26 26 26 26 27
18 17 16 15 15 14 14 14 13 13 13 13 13 12 12 13 13 14 15 17 19 21 22 23 24 25 26 26 26 26 25 24 24 25 24 24 24 24
Wind_Direction
262 265 267 270 272 274 275 276 276 276 276 277 276 274 271 265 263 261 260 258 257 256 255 253 250 249 248 249 251 253 256 259 260 261 261 260 259 259
263 266 267 268 270 272 274 275 276 275 275 276 276 275 270 266 261 261 259 255 255 256 254 253 252 251 249 249 251 253 256 257 259 260 261 260 258 258
264 265 266 267 270 271 272 273 273 273 273 273 276 276 269 265 264 263 260 255 255 255 254 254 253 252 250 249 251 252 254 256 258 258 260 260 259 259
264 265 266 267 269 270 271 271 271 271 272 271 275 276 271 266 265 265 262 257 254 254 254 253 252 252 251 250 250 251 253 254 256 258 259 258 258 260
263 264 265 267 268 269 270 270 269 269 271 270 272 274 274 270 266 265 263 260 255 253 252 252 251 252 251 251 251 251 252 253 254 256 258 258 260 261
264 264 266 268 268 268 268 268 269 268 269 269 270 272 273 275 270 270 267 264 258 252 251 251 251 252 251 251 250 251 252 253 255 256 258 258 259 260
267 267 267 267 268 268 268 269 269 269 269 269 269 271 271 273 273 275 273 269 261 254 253 252 252 251 251 251 251 252 253 254 256 257 258 259 259 260
268 268 268 268 269 269 269 269 270 270 270 269 269 270 271 272 273 278 279 273 270 262 256 252 252 252 252 252 253 253 254 255 256 257 259 260 260 260
269 269 268 269 269 269 269 268 269 270 270 270 270 271 272 272 273 277 280 279 275 271 265 261 257 253 251 253 255 256 256 257 258 259 259 259 261 261
269 269 267 266 266 266 267 268 268 270 270 271 271 271 271 273 273 275 277 279 278 274 273 272 266 263 257 256 256 257 258 259 260 260 261 261 261 262
268 267 266 265 263 263 266 268 269 270 271 272 273 273 272 272 274 275 276 277 276 275 276 275 274 272 269 265 263 263 262 262 263 264 264 263 263 264
265 263 263 263 259 260 265 266 268 271 273 274 273 273 273 274 275 276 277 277 278 279 278 279 279 278 277 272 270 269 268 267 268 269 268 267 266 265
262 259 261 261 257 258 262 265 266 270 272 274 276 275 275 275 276 279 280 279 279 279 280 280 281 282 283 281 275 274 274 273 272 271 270 270 269 268
261 258 257 255 255 257 259 262 266 270 272 275 277 279 280 279 280 281 283 282 282 282 282 282 282 281 281 282 281 280 278 277 275 274 273 272 271 271
261 255 254 252 253 256 256 261 266 269 272 274 277 280 284 287 288 288 288 288 288 286 286 286 286 285 284 283 282 281 280 279 279 278 276 274 273 272
264 253 251 249 249 255 260 265 268 269 272 274 277 282 287 293 296 297 296 295 293 292 290 289 289 289 288 288 287 285 284 283 281 280 278 277 275 273
61 101 152 210 240 261 274 273 269 271 274 278 286 291 296 302 307 310 309 307 304 301 299 298 297 296 295 293 292 291 289 288 286 283 281 279 278 276
69 77 81 79 76 62 47 25 319 304 298 298 305 311 315 320 322 322 321 319 317 315 313 310 308 305 303 300 298 297 295 294 291 289 286 284 281 279
70 75 75 76 78 75 72 68 58 47 32 19 9 354 345 342 340 338 335 334 332 329 326 323 319 315 312 309 307 305 303 300 297 295 292 289 286 284
68 71 72 73 71 69 68 67 64 58 49 42 32 21 13 7 3 359 355 350 345 341 338 334 330 326 322 319 316 313 310 306 303 300 297 294 291 289
66 68 68 67 66 65 65 63 61 56 51 44 37 32 26 20 13 9 5 2 358 354 350 346 342 337 333 330 327 323 319 315 311 308 304 301 298 295
62 63 63 62 62 60 58 56 54 50 46 41 37 32 27 21 17 13 11 8 4 2 359 356 353 351 347 344 340 337 333 328 324 320 315 310 306 303
58 59 59 58 57 55 53 50 47 45 42 38 34 29 24 19 15 12 11 9 7 6 5 3 1 360 358 355 353 351 347 343 340 336 331 326 321 317
Height
5828 5828 5829 5829 5829 5829 5829 5830 5830 5830 5830 5830 5830 5830 5830 5830 5830 5831 5832 5833 5835 5836 5837 5839 5840 5842 5844 5846 5848 5849 5851 5852 5853 5854 5855 5856 5857 5859
5821 5822 5822 5823 5823 5822 5823 5823 5824 5824 5824 5824 5823 5824 5824 5823 5823 5824 5826 5827 5828 5830 5831 5832 5834 5835 5837 5839 5841 5842 5844 5845 5846 5848 5848 5849 5850 5852
5814 5815 5816 5816 5816 5816 5816 5817 5817 5817 5818 5817 5817 5817 5818 5818 5818 5818 5819 5820 5821 5823 5825 5826 5828 5829 5831 5832 5834 5835 5837 5838 5840 5841 5842 5843 5844 5845
5808 5809 5809 5810 5810 5810 5810 5810 5810 5811 5811 5811 5811 5811 5811 5811 5812 5812 5813 5814 5815 5817 5818 5820 5821 5823 5824 5826 5827 5829 5830 5832 5833 5834 5835 5837 5837 5838
5802 5803 5803 5803 5804 5804 5804 5804 5804 5805 5805 5805 5805 5805 5805 5805 5806 5806 5807 5807 5808 5810 5811 5813 5815 5816 5818 5819 5821 5822 5824 5825 5826 5827 5829 5830 5830 5831
5796 5796 5797 5797 5797 5797 5797 5798 5798 5798 5799 5799 5799 5799 5800 5799 5800 5800 5800 5800 5801 5803 5805 5806 5808 5810 5811 5813 5814 5816 5817 5818 5819 5820 5822 5822 5823 5824
5790 5790 5790 5790 5791 5791 5791 5791 5791 5792 5792 5793 5793 5793 5794 5794 5794 5794 5794 5794 5794 5796 5797 5799 5800 5802 5804 5806 5807 5809 5810 5811 5812 5813 5814 5815 5816 5817
5783 5783 5784 5784 5784 5784 5784 5785 5785 5785 5786 5787 5787 5788 5788 5788 5788 5788 5788 5788 5788 5790 5791 5792 5793 5795 5796 5798 5800 5801 5802 5804 5805 5806 5807 5808 5808 5809
5776 5777 5777 5778 5777 5778 5778 5778 5779 5779 5780 5780 5781 5781 5782 5782 5783 5783 5783 5783 5783 5783 5784 5785 5786 5787 5789 5790 5792 5793 5794 5795 5797 5797 5798 5799 5800 5801
5769 5770 5770 5771 5771 5771 5771 5772 5773 5773 5773 5774 5775 5775 5776 5776 5777 5777 5778 5778 5778 5778 5778 5779 5779 5780 5781 5782 5784 5785 5785 5786 5787 5788 5789 5790 5791 5791
5762 5763 5763 5764 5764 5765 5766 5767 5767 5768 5768 5768 5769 5769 5770 5770 5771 5772 5772 5772 5772 5773 5773 5773 5773 5774 5774 5775 5775 5776 5776 5777 5778 5778 5779 5779 5780 5781
5755 5756 5756 5757 5758 5759 5760 5761 5762 5763 5763 5763 5764 5764 5765 5765 5765 5766 5766 5767 5767 5767 5767 5767 5767 5767 5767 5768 5768 5768 5767 5768 5768 5768 5768 5768 5769 5769
5750 5750 5751 5752 5753 5754 5756 5757 5757 5758 5758 5759 5759 5760 5760 5760 5761 5761 5761 5761 5762 5762 5762 5761 5761 5761 5761 5761 5760 5760 5759 5759 5758 5758 5758 5757 5757 5757
5744 5745 5746 5747 5749 5750 5751 5752 5753 5754 5754 5755 5755 5756 5756 5756 5756 5756 5757 5756 5756 5756 5756 5755 5755 5754 5754 5753 5753 5752 5751 5750 5749 5748 5747 5746 5746 5745
5740 5741 5742 5744 5745 5746 5747 5748 5749 5750 5751 5751 5752 5752 5752 5752 5752 5752 5752 5752 5751 5751 5750 5749 5748 5747 5747 5746 5744 5743 5742 5740 5739 5738 5737 5736 5734 5733
5738 5739 5740 5741 5742 5743 5744 5745 5746 5747 5748 5748 5749 5749 5749 5749 5749 5748 5748 5747 5746 5745 5744 5743 5742 5741 5739 5737 5736 5734 5732 5730 5728 5727 5725 5724 5722 5721
5737 5738 5739 5740 5741 5742 5742 5743 5744 5744 5745 5746 5746 5746 5746 5746 5746 5745 5744 5743 5742 5741 5739 5737 5736 5734 5732 5730 5727 5725 5722 5720 5718 5715 5713 5711 5709 5708
5739 5739 5740 5740 5741 5741 5742 5742 5742 5743 5743 5744 5744 5745 5745 5744 5744 5743 5741 5740 5738 5736 5734 5732 5730 5727 5724 5721 5719 5715 5712 5709 5706 5703 5701 5699 5696 5694
5742 5742 5742 5742 5742 5743 5743 5743 5743 5743 5744 5744 5744 5744 5744 5743 5742 5741 5739 5737 5735 5733 5730 5727 5725 5721 5718 5714 5710 5706 5703 5699 5695 5692 5689 5686 5684 5681
5747 5746 5746 5746 5746 5745 5745 5745 5745 5745 5745 5745 5744 5744 5743 5743 5742 5740 5738 5736 5733 5730 5727 5724 5720 5716 5712 5708 5703 5698 5694 5690 5686 5682 5678 5675 5672 5669
5752 5752 5751 5751 5750 5749 5749 5749 5748 5748 5747 5747 5746 5745 5744 5743 5741 5740 5738 5735 5732 5728 5724 5720 5716 5711 5706 5701 5696 5690 5686 5681 5677 5673 5669 5666 5662 5659
5758 5757 5756 5756 5755 5754 5753 5752 5752 5751 5750 5749 5748 5747 5745 5744 5742 5740 5738 5735 5731 5727 5723 5718 5713 5708 5702 5697 5691 5685 5680 5675 5670 5666 5662 5658 5654 5650
5764 5763 5761 5760 5759 5758 5757 5756 5755 5754 5753 5751 5750 5749 5747 5745 5743 5741 5738 5735 5731 5727 5722 5717 5712 5706 5700 5694 5688 5682 5677 5671 5666 5661 5657 5652 5647 5643